Location: Владивосток
(43.1151°N, 131.8856°E)
Time: 13:49:17
(UTC+10:00)

AO-85 - Visible Passes

Search period start: 16 April 2024 00:00
Search period end: 26 April 2024 00:00
Orbit: 516 x 753 km, 64.8° (Epoch: 04 January)

Date Brightness Start Highest point End Pass type
(mag) Time Alt. Az. Time Alt. Az. Time Alt. Az.
16 Apr ? 02:39:46 25° NNE 02:39:46 25° NNE 02:41:49 10° NNE visible
16 Apr ? 04:17:23 10° NW 04:18:34 11° NNW 04:19:45 10° NNW visible
17 Apr ? 02:57:49 23° NNW 02:57:49 23° NNW 03:00:22 10° NNE visible
18 Apr ? 01:38:38 16° NE 01:38:38 16° NE 01:39:34 10° NE visible
18 Apr ? 03:15:51 16° NW 03:15:51 16° NW 03:18:38 10° N visible
19 Apr ? 01:56:37 21° NNE 01:56:37 21° NNE 01:58:19 10° NNE visible
19 Apr ? 03:34:29 10° NW 03:35:10 10° NNW 03:35:51 10° NNW visible
20 Apr ? 02:14:32 21° NNW 02:14:32 21° NNW 02:16:49 10° NNE visible
21 Apr ? 00:55:13 15° NNE 00:55:13 15° NNE 00:56:03 10° NE visible
21 Apr ? 02:32:25 15° NNW 02:32:25 15° NNW 02:35:00 10° N visible
22 Apr ? 01:13:02 21° NNE 01:13:02 21° NNE 01:14:45 10° NNE visible
23 Apr ? 01:30:46 21° NNW 01:30:46 21° NNW 01:33:11 10° NNE visible
24 Apr ? 00:11:14 18° NNE 00:11:14 18° NNE 00:12:28 10° NNE visible
24 Apr ? 01:48:24 14° NW 01:48:44 15° NW 01:51:18 10° N visible
25 Apr ? 00:28:46 26° N 00:28:46 26° N 00:31:07 10° NNE visible
25 Apr ? 23:08:59 16° NE 23:08:59 16° NE 23:09:56 10° NE visible
